MST,Max TemperatureF,Mean TemperatureF,Min TemperatureF,Max Dew PointF,MeanDew PointF,Min DewpointF,Max Humidity, Mean Humidity, Min Humidity, Max Sea Level PressureIn, Mean Sea Level PressureIn, Min Sea Level PressureIn, Max VisibilityMiles, Mean VisibilityMiles, Min VisibilityMiles, Max Wind SpeedMPH, Mean Wind SpeedMPH, Max Gust SpeedMPH,PrecipitationIn, CloudCover, Events, WindDirDegrees
2011-12-1,52,34,17,32,21,12,96,67,21,30.01,29.84,29.64,10,7,0,25,5,37,0.09,5,Fog-Rain-Snow,104
2011-12-2,32,29,26,28,25,19,100,88,69,30.02,29.90,29.78,10,5,0,8,3,25,0.10,8,Fog-Snow,114
2011-12-3,32,24,15,27,23,13,100,87,69,30.10,29.90,29.76,10,6,0,18,5,24,0.05,7,Fog-Snow,205
2011-12-4,28,17,6,21,14,4,95,83,64,30.16,30.04,29.93,10,10,4,13,3,18,0.00,5,Snow,243
2011-12-5,23,10,-2,18,10,-6,93,82,60,30.35,30.16,30.05,10,7,0,8,3,,0.03,5,Fog-Snow,52
2011-12-6,32,10,-11,12,1,-14,91,71,35,30.48,30.39,30.20,10,10,8,9,1,,0.00,1,,317
2011-12-7,39,21,3,17,11,0,92,72,40,30.45,30.32,30.18,10,10,10,7,2,,0.00,0,,203
2011-12-8,45,27,9,21,15,6,92,72,34,30.25,30.16,30.06,10,10,10,6,1,,0.00,0,,172
2011-12-9,44,26,7,18,13,4,92,70,30,30.43,30.31,30.18,10,10,10,9,1,,0.00,0,,173
2011-12-10,46,27,8,19,12,6,92,67,23,30.45,30.29,30.17,10,10,10,13,1,,0.00,0,,107
2011-12-11,45,27,9,24,17,5,96,74,39,30.20,30.06,29.94,10,10,7,10,1,,0.00,0,,227
2011-12-12,36,28,19,34,30,17,100,94,85,30.02,29.95,29.88,10,5,1,12,2,16,0.22,7,Rain-Snow,136
2011-12-13,39,34,30,34,31,28,100,93,70,29.98,29.90,29.77,10,9,2,9,2,,0.02,7,Rain-Snow,179
2011-12-14,34,28,18,30,25,16,100,87,64,30.21,30.02,29.85,10,8,1,12,5,18,0.02,6,Snow,235
2011-12-15,37,24,12,22,16,9,92,75,43,30.28,30.20,30.12,10,10,10,10,2,,0.00,1,,75
2011-12-16,37,26,14,21,18,11,92,70,50,30.38,30.29,30.21,10,10,10,16,5,22,0.00,0,,76
2011-12-17,45,32,18,24,20,15,91,68,42,30.42,30.33,30.23,10,10,10,8,4,,0.00,0,,93
2011-12-18,50,34,19,33,26,17,96,78,46,30.23,30.03,29.78,10,10,7,9,2,16,0.00,2,,194
2011-12-19,39,34,28,31,27,23,96,81,53,29.97,29.80,29.68,10,10,7,12,3,,0.00,7,,44
2011-12-20,37,30,23,30,28,22,96,86,65,30.03,29.95,29.86,10,9,5,9,3,,0.00,7,Snow,116
2011-12-21,37,29,21,26,23,20,96,78,53,29.96,29.88,29.79,10,10,6,10,4,,0.00,6,,263
2011-12-22,28,22,17,25,15,9,88,75,53,30.19,30.05,29.86,10,7,2,14,5,20,0.00,7,Snow,22
2011-12-23,32,21,10,17,14,6,93,78,42,30.46,30.30,30.16,10,9,2,14,9,21,0.01,4,Snow,65
2011-12-24,41,23,5,16,9,1,88,67,32,30.55,30.47,30.40,10,10,10,5,1,,0.00,0,,160
2011-12-25,44,24,5,16,11,2,92,64,28,30.56,30.42,30.26,10,10,10,9,1,,0.00,0,,142
2011-12-26,52,30,9,18,12,7,92,63,23,30.40,30.27,30.17,10,10,10,12,2,74,0.00,0,,263
2011-12-27,52,28,5,16,9,3,92,57,14,30.41,30.29,30.14,10,10,10,12,2,,0.00,0,,255
2011-12-28,54,32,10,17,10,2,84,52,13,30.41,30.31,30.22,10,10,8,10,2,17,0.00,0,,274
2011-12-29,57,37,17,23,17,12,81,56,24,30.32,30.17,30.02,10,10,7,12,2,21,0.00,0,,272
2011-12-30,59,39,19,27,21,16,92,64,26,30.26,30.14,30.04,10,10,10,14,2,21,0.00,0,,277
2011-12-31,55,37,19,25,16,3,78,45,12,30.36,30.14,29.94,10,10,10,16,5,24,0.00,0,,323